START_TIME,STEP,MOV.,P11,t_acc.,P23,t_acc.,P27,t_acc.,A4,t_acc.
1979-07-17 12:00:23.100 ,0,0,8.,4.8,0.,4.8,0.,4.8,0.,4.8
1979-07-17 12:00:27.900 ,0,0,5.,4.8,0.,4.8,0.,4.8,0.,4.8
1979-07-17 12:00:32.700 ,0,0,10.,4.8,0.,4.8,0.,4.8,0.,4.8
1979-07-17 12:00:37.500 ,0,0,5.,4.8,0.,4.8,0.,4.8,0.,4.8
1979-07-17 12:00:42.300 ,0,0,9.,4.8,0.,4.8,0.,4.8,0.,4.8
1979-07-17 12:00:47.100 ,1,0,12.,4.8,0.,4.8,0.,4.8,0.,4.8
1979-07-17 12:00:51.900 ,1,0,9.,4.8,0.,4.8,0.,4.8,0.,4.8
1979-07-17 12:00:56.700 ,1,0,4.,4.8,0.,4.8,0.,4.8,0.,4.8
1979-07-17 12:01:01.500 ,1,0,7.,4.8,0.,4.8,0.,4.8,0.,4.8
1979-07-17 12:01:06.300 ,1,0,13.,4.8,0.,4.8,0.,4.8,0.,4.8
1979-07-17 12:01:11.100 ,1,0,8.,4.8,0.,4.8,0.,4.8,0.,4.8
1979-07-17 12:01:15.900 ,1,0,5.,4.8,0.,4.8,0.,4.8,0.,4.8
1979-07-17 12:01:20.700 ,1,0,11.,4.8,0.,4.8,0.,4.8,0.,4.8
1979-07-17 12:01:25.500 ,1,0,14.,4.8,0.,4.8,0.,4.8,0.,4.8
1979-07-17 12:01:30.300 ,1,0,6.,4.8,0.,4.8,0.,4.8,0.,4.8
1979-07-17 12:01:35.100 ,2,0,14.,4.8,0.,4.8,0.,4.8,1.,4.8
1979-07-17 12:01:39.900 ,2,0,13.,4.8,0.,4.8,0.,4.8,0.,4.8
1979-07-17 12:01:44.700 ,2,0,9.,4.8,0.,4.8,0.,4.8,0.,4.8
1979-07-17 12:01:49.500 ,2,0,4.,4.8,0.,4.8,0.,4.8,0.,4.8
1979-07-17 12:01:54.300 ,2,0,14.,4.8,0.,4.8,0.,4.8,0.,4.8
1979-07-17 12:01:59.100 ,2,0,5.,4.8,0.,4.8,0.,4.8,0.,4.8
1979-07-17 12:02:03.900 ,2,0,10.,4.8,0.,4.8,0.,4.8,0.,4.8
1979-07-17 12:02:08.700 ,2,0,4.,4.8,0.,4.8,0.,4.8,0.,4.8
1979-07-17 12:02:13.500 ,2,0,7.,4.8,0.,4.8,0.,4.8,0.,4.8
1979-07-17 12:02:18.300 ,2,0,8.,4.8,0.,4.8,0.,4.8,0.,4.8
1979-07-17 12:02:23.100 ,3,0,7.,4.8,0.,4.8,0.,4.8,0.,4.8
1979-07-17 12:02:27.900 ,3,0,7.,4.8,0.,4.8,0.,4.8,2.,4.8
1979-07-17 12:02:32.700 ,3,0,8.,4.8,0.,4.8,0.,4.8,0.,4.8
1979-07-17 12:02:37.500 ,3,0,12.,4.8,0.,4.8,0.,4.8,0.,4.8
1979-07-17 12:02:42.300 ,3,0,4.,4.8,0.,4.8,0.,4.8,0.,4.8
1979-07-17 12:02:47.100 ,3,0,12.,4.8,0.,4.8,0.,4.8,0.,4.8
1979-07-17 12:02:51.900 ,3,0,5.,4.8,0.,4.8,0.,4.8,0.,4.8
1979-07-17 12:02:56.700 ,3,0,3.,4.8,0.,4.8,0.,4.8,0.,4.8
1979-07-17 12:03:01.500 ,3,0,6.,4.8,0.,4.8,0.,4.8,0.,4.8
1979-07-17 12:03:06.300 ,3,0,8.,4.8,0.,4.8,0.,4.8,0.,4.8
1979-07-17 12:03:11.100 ,4,0,4.,4.8,0.,4.8,0.,4.8,0.,4.8
1979-07-17 12:03:15.900 ,4,0,2.,4.8,0.,4.8,0.,4.8,0.,4.8
1979-07-17 12:03:20.700 ,4,0,6.,4.8,0.,4.8,0.,4.8,0.,4.8
1979-07-17 12:03:25.500 ,4,0,12.,4.8,0.,4.8,0.,4.8,0.,4.8
1979-07-17 12:03:30.300 ,4,0,10.,4.8,0.,4.8,0.,4.8,0.,4.8
1979-07-17 12:03:35.100 ,4,0,5.,4.8,0.,4.8,0.,4.8,0.,4.8
1979-07-17 12:03:39.900 ,4,0,8.,4.8,0.,4.8,0.,4.8,0.,4.8
1979-07-17 12:03:44.700 ,4,0,9.,4.8,0.,4.8,0.,4.8,0.,4.8
1979-07-17 12:03:49.500 ,4,0,11.,4.8,0.,4.8,0.,4.8,0.,4.8
1979-07-17 12:03:54.300 ,4,0,11.,4.8,0.,4.8,0.,4.8,0.,4.8
1979-07-17 12:03:59.100 ,5,0,4.,4.8,0.,4.8,0.,4.8,0.,4.8
1979-07-17 12:04:03.900 ,5,0,4.,4.8,0.,4.8,0.,4.8,0.,4.8
1979-07-17 12:04:08.700 ,5,0,8.,4.8,0.,4.8,0.,4.8,0.,4.8
1979-07-17 12:04:13.500 ,5,0,11.,4.8,0.,4.8,0.,4.8,0.,4.8
1979-07-17 12:04:18.300 ,5,0,6.,4.8,0.,4.8,0.,4.8,0.,4.8
1979-07-17 12:04:23.100 ,5,0,12.,4.8,0.,4.8,0.,4.8,0.,4.8
1979-07-17 12:04:27.900 ,5,0,2.,4.8,0.,4.8,0.,4.8,0.,4.8
1979-07-17 12:04:32.700 ,5,0,5.,4.8,0.,4.8,0.,4.8,0.,4.8
1979-07-17 12:04:37.500 ,5,0,4.,4.8,0.,4.8,0.,4.8,0.,4.8
1979-07-17 12:04:42.300 ,5,0,12.,4.8,0.,4.8,0.,4.8,0.,4.8
1979-07-17 12:04:47.100 ,6,0,7.,4.8,0.,4.8,0.,4.8,0.,4.8
1979-07-17 12:04:51.900 ,6,0,8.,4.8,0.,4.8,0.,4.8,0.,4.8
1979-07-17 12:04:56.700 ,6,0,5.,4.8,0.,4.8,0.,4.8,0.,4.8
1979-07-17 12:05:01.500 ,6,0,5.,4.8,0.,4.8,0.,4.8,0.,4.8
1979-07-17 12:05:06.300 ,6,0,7.,4.8,0.,4.8,0.,4.8,0.,4.8
1979-07-17 12:05:11.100 ,6,0,10.,4.8,0.,4.8,0.,4.8,0.,4.8
1979-07-17 12:05:15.900 ,6,0,8.,4.8,0.,4.8,0.,4.8,1.,4.8
1979-07-17 12:05:20.700 ,6,0,10.,4.8,0.,4.8,0.,4.8,0.,4.8
1979-07-17 12:05:25.500 ,6,0,10.,4.8,0.,4.8,0.,4.8,0.,4.8
1979-07-17 12:05:30.300 ,6,0,7.,4.8,0.,4.8,0.,4.8,0.,4.8
1979-07-17 12:05:35.100 ,7,0,7.,4.8,0.,4.8,0.,4.8,0.,4.8
1979-07-17 12:05:39.900 ,7,0,6.,4.8,0.,4.8,0.,4.8,0.,4.8
1979-07-17 12:05:44.700 ,7,0,3.,4.8,0.,4.8,0.,4.8,0.,4.8
1979-07-17 12:05:49.500 ,7,0,6.,4.8,0.,4.8,0.,4.8,0.,4.8
1979-07-17 12:05:54.300 ,7,0,3.,4.8,0.,4.8,0.,4.8,0.,4.8
1979-07-17 12:05:59.100 ,7,0,2.,4.8,0.,4.8,0.,4.8,0.,4.8
1979-07-17 12:06:03.900 ,7,0,1.,4.8,0.,4.8,0.,4.8,0.,4.8
1979-07-17 12:06:08.700 ,7,0,6.,4.8,0.,4.8,0.,4.8,0.,4.8
1979-07-17 12:06:13.500 ,7,0,3.,4.8,0.,4.8,0.,4.8,0.,4.8
1979-07-17 12:06:18.300 ,7,0,3.,4.8,0.,4.8,0.,4.8,0.,4.8
1979-07-17 12:06:23.100 ,7,0,5.,4.8,0.,4.8,0.,4.8,0.,4.8
1979-07-17 12:06:27.900 ,7,0,12.,4.8,0.,4.8,0.,4.8,0.,4.8
1979-07-17 12:06:32.700 ,7,0,2.,4.8,0.,4.8,0.,4.8,0.,4.8
1979-07-17 12:06:37.500 ,7,0,5.,4.8,0.,4.8,0.,4.8,0.,4.8
1979-07-17 12:06:42.300 ,7,0,7.,4.8,0.,4.8,0.,4.8,0.,4.8
1979-07-17 12:06:47.100 ,7,0,2.,4.8,0.,4.8,0.,4.8,0.,4.8
1979-07-17 12:06:51.900 ,7,0,4.,4.8,0.,4.8,0.,4.8,0.,4.8
1979-07-17 12:06:56.700 ,7,0,1.,4.8,0.,4.8,0.,4.8,0.,4.8
1979-07-17 12:07:01.500 ,7,0,5.,4.8,0.,4.8,0.,4.8,0.,4.8
1979-07-17 12:07:06.300 ,7,0,5.,4.8,0.,4.8,0.,4.8,0.,4.8
1979-07-17 12:07:11.100 ,6,0,4.,4.8,0.,4.8,0.,4.8,0.,4.8
1979-07-17 12:07:15.900 ,6,0,2.,4.8,0.,4.8,0.,4.8,0.,4.8
1979-07-17 12:07:20.700 ,6,0,9.,4.8,0.,4.8,0.,4.8,0.,4.8
1979-07-17 12:07:25.500 ,6,0,9.,4.8,0.,4.8,0.,4.8,0.,4.8
1979-07-17 12:07:30.300 ,6,0,9.,4.8,0.,4.8,0.,4.8,0.,4.8
1979-07-17 12:07:35.100 ,6,0,4.,4.8,0.,4.8,0.,4.8,0.,4.8
1979-07-17 12:07:39.900 ,6,0,7.,4.8,0.,4.8,0.,4.8,0.,4.8
1979-07-17 12:07:44.700 ,6,0,10.,4.8,0.,4.8,0.,4.8,0.,4.8
1979-07-17 12:07:49.500 ,6,0,8.,4.8,0.,4.8,0.,4.8,0.,4.8
1979-07-17 12:07:54.300 ,6,0,7.,4.8,0.,4.8,0.,4.8,0.,4.8
1979-07-17 12:07:59.100 ,5,0,7.,4.8,0.,4.8,0.,4.8,0.,4.8
1979-07-17 12:08:03.900 ,5,0,7.,4.8,0.,4.8,0.,4.8,0.,4.8
1979-07-17 12:08:08.700 ,5,0,7.,4.8,0.,4.8,0.,4.8,0.,4.8
1979-07-17 12:08:13.500 ,5,0,9.,4.8,0.,4.8,0.,4.8,0.,4.8
1979-07-17 12:08:18.300 ,5,0,4.,4.8,0.,4.8,0.,4.8,0.,4.8
1979-07-17 12:08:23.100 ,5,0,8.,4.8,0.,4.8,0.,4.8,0.,4.8
1979-07-17 12:08:27.900 ,5,0,6.,4.8,0.,4.8,0.,4.8,0.,4.8
1979-07-17 12:08:32.700 ,5,0,6.,4.8,0.,4.8,0.,4.8,0.,4.8
1979-07-17 12:08:37.500 ,5,0,10.,4.8,0.,4.8,0.,4.8,0.,4.8
1979-07-17 12:08:42.300 ,5,0,8.,4.8,0.,4.8,0.,4.8,0.,4.8
1979-07-17 12:08:47.100 ,4,0,5.,4.8,0.,4.8,0.,4.8,0.,4.8
1979-07-17 12:08:51.900 ,4,0,7.,4.8,0.,4.8,0.,4.8,0.,4.8
1979-07-17 12:08:56.700 ,4,0,9.,4.8,0.,4.8,0.,4.8,0.,4.8
1979-07-17 12:09:01.500 ,4,0,3.,4.8,0.,4.8,0.,4.8,0.,4.8
1979-07-17 12:09:06.300 ,4,0,7.,4.8,0.,4.8,0.,4.8,0.,4.8
1979-07-17 12:09:11.100 ,4,0,12.,4.8,0.,4.8,0.,4.8,0.,4.8
1979-07-17 12:09:15.900 ,4,0,7.,4.8,0.,4.8,0.,4.8,0.,4.8
1979-07-17 12:09:20.700 ,4,0,5.,4.8,0.,4.8,0.,4.8,0.,4.8
1979-07-17 12:09:25.500 ,4,0,6.,4.8,0.,4.8,0.,4.8,0.,4.8
1979-07-17 12:09:30.300 ,4,0,12.,4.8,0.,4.8,0.,4.8,0.,4.8
1979-07-17 12:09:35.100 ,3,0,6.,4.8,0.,4.8,0.,4.8,0.,4.8
1979-07-17 12:09:39.900 ,3,0,11.,4.8,0.,4.8,0.,4.8,0.,4.8
1979-07-17 12:09:44.700 ,3,0,6.,4.8,0.,4.8,0.,4.8,0.,4.8
1979-07-17 12:09:49.500 ,3,0,7.,4.8,0.,4.8,0.,4.8,1.,4.8
1979-07-17 12:09:54.300 ,3,0,8.,4.8,0.,4.8,0.,4.8,0.,4.8
1979-07-17 12:09:59.100 ,3,0,9.,4.8,0.,4.8,0.,4.8,1.,4.8
1979-07-17 12:10:03.900 ,3,0,5.,4.8,0.,4.8,0.,4.8,0.,4.8
1979-07-17 12:10:08.700 ,3,0,5.,4.8,0.,4.8,0.,4.8,0.,4.8
1979-07-17 12:10:13.500 ,3,0,5.,4.8,0.,4.8,0.,4.8,0.,4.8
1979-07-17 12:10:18.300 ,3,0,5.,4.8,0.,4.8,0.,4.8,0.,4.8
1979-07-17 12:10:23.100 ,2,0,5.,4.8,0.,4.8,0.,4.8,0.,4.8
1979-07-17 12:10:27.900 ,2,0,8.,4.8,0.,4.8,0.,4.8,0.,4.8
1979-07-17 12:10:32.700 ,2,0,6.,4.8,0.,4.8,0.,4.8,0.,4.8
1979-07-17 12:10:37.500 ,2,0,10.,4.8,0.,4.8,0.,4.8,1.,4.8
1979-07-17 12:10:42.300 ,2,0,10.,4.8,0.,4.8,0.,4.8,0.,4.8
1979-07-17 12:10:47.100 ,2,0,1.,4.8,0.,4.8,0.,4.8,0.,4.8
1979-07-17 12:10:51.900 ,2,0,12.,4.8,0.,4.8,0.,4.8,0.,4.8
1979-07-17 12:10:56.700 ,2,0,8.,4.8,0.,4.8,0.,4.8,0.,4.8
1979-07-17 12:11:01.500 ,2,0,9.,4.8,0.,4.8,0.,4.8,0.,4.8
1979-07-17 12:11:06.300 ,2,0,10.,4.8,0.,4.8,0.,4.8,0.,4.8
1979-07-17 12:11:11.100 ,1,0,6.,4.8,0.,4.8,0.,4.8,0.,4.8
1979-07-17 12:11:15.900 ,1,0,10.,4.8,0.,4.8,0.,4.8,0.,4.8
1979-07-17 12:11:20.700 ,1,0,12.,4.8,0.,4.8,0.,4.8,0.,4.8
1979-07-17 12:11:25.500 ,1,0,5.,4.8,0.,4.8,0.,4.8,0.,4.8
1979-07-17 12:11:30.300 ,1,0,9.,4.8,0.,4.8,0.,4.8,1.,4.8
1979-07-17 12:11:35.100 ,0,0,8.,4.8,0.,4.8,0.,4.8,0.,4.8
1979-07-17 12:11:39.900 ,0,0,6.,4.8,0.,4.8,0.,4.8,0.,4.8
1979-07-17 12:11:44.700 ,0,0,11.,4.8,0.,4.8,0.,4.8,0.,4.8
1979-07-17 12:11:49.500 ,0,0,8.,4.8,0.,4.8,0.,4.8,0.,4.8
1979-07-17 12:11:54.300 ,0,0,,0,,0,,0,,0
1979-07-17 12:11:35.100 ,1,0,8.,4.8,0.,4.8,0.,4.8,0.,4.8
1979-07-17 12:11:39.900 ,1,0,6.,4.8,0.,4.8,0.,4.8,0.,4.8
1979-07-17 12:11:44.700 ,1,0,11.,4.8,0.,4.8,0.,4.8,0.,4.8
1979-07-17 12:11:49.500 ,1,0,8.,4.8,0.,4.8,0.,4.8,0.,4.8
1979-07-17 12:11:54.300 ,1,0,7.,4.8,0.,4.8,0.,4.8,0.,4.8
1979-07-17 12:11:59.100 ,0,0,5.,4.8,0.,4.8,0.,4.8,0.,4.8
1979-07-17 12:12:03.900 ,0,0,8.,4.8,0.,4.8,0.,4.8,1.,4.8
1979-07-17 12:12:08.700 ,0,0,10.,4.8,0.,4.8,0.,4.8,0.,4.8
1979-07-17 12:12:13.500 ,0,0,5.,4.8,0.,4.8,0.,4.8,0.,4.8
1979-07-17 12:12:18.300 ,0,0,8.,4.8,0.,4.8,0.,4.8,0.,4.8
1979-07-17 12:12:23.100 ,0,0,7.,4.8,0.,4.8,0.,4.8,0.,4.8
1979-07-17 12:12:27.900 ,0,0,3.,4.8,0.,4.8,0.,4.8,0.,4.8
1979-07-17 12:12:32.700 ,0,0,11.,4.8,0.,4.8,0.,4.8,0.,4.8
1979-07-17 12:12:37.500 ,0,0,9.,4.8,0.,4.8,0.,4.8,0.,4.8
1979-07-17 12:12:42.300 ,0,0,2.,4.8,0.,4.8,0.,4.8,0.,4.8
1979-07-17 12:12:47.100 ,0,0,8.,4.8,0.,4.8,0.,4.8,0.,4.8
1979-07-17 12:12:51.900 ,0,0,8.,4.8,0.,4.8,0.,4.8,1.,4.8
1979-07-17 12:12:56.700 ,0,0,3.,4.8,0.,4.8,0.,4.8,0.,4.8
1979-07-17 12:13:01.500 ,0,0,9.,4.8,0.,4.8,0.,4.8,0.,4.8
1979-07-17 12:13:06.300 ,0,0,9.,4.8,0.,4.8,0.,4.8,0.,4.8
1979-07-17 12:13:11.100 ,0,0,10.,4.8,0.,4.8,0.,4.8,0.,4.8
1979-07-17 12:13:15.900 ,0,0,5.,4.8,0.,4.8,0.,4.8,0.,4.8
1979-07-17 12:13:20.700 ,0,0,7.,4.8,0.,4.8,0.,4.8,0.,4.8
1979-07-17 12:13:25.500 ,0,0,7.,4.8,0.,4.8,0.,4.8,0.,4.8
1979-07-17 12:13:30.300 ,0,0,7.,4.8,0.,4.8,0.,4.8,0.,4.8
1979-07-17 12:13:35.100 ,1,0,6.,4.8,0.,4.8,0.,4.8,0.,4.8
1979-07-17 12:13:39.900 ,1,0,3.,4.8,0.,4.8,0.,4.8,0.,4.8
1979-07-17 12:13:44.700 ,1,0,4.,4.8,0.,4.8,0.,4.8,0.,4.8
1979-07-17 12:13:49.500 ,1,0,8.,4.8,0.,4.8,0.,4.8,0.,4.8
1979-07-17 12:13:54.300 ,1,0,6.,4.8,0.,4.8,0.,4.8,0.,4.8
1979-07-17 12:13:59.100 ,1,0,10.,4.8,0.,4.8,0.,4.8,0.,4.8
1979-07-17 12:14:03.900 ,1,0,6.,4.8,0.,4.8,0.,4.8,0.,4.8
1979-07-17 12:14:08.700 ,1,0,4.,4.8,0.,4.8,0.,4.8,0.,4.8
1979-07-17 12:14:13.500 ,1,0,15.,4.8,0.,4.8,0.,4.8,1.,4.8
1979-07-17 12:14:18.300 ,1,0,8.,4.8,0.,4.8,0.,4.8,0.,4.8
1979-07-17 12:14:23.100 ,2,0,4.,4.8,0.,4.8,0.,4.8,0.,4.8
1979-07-17 12:14:27.900 ,2,0,6.,4.8,0.,4.8,0.,4.8,0.,4.8
1979-07-17 12:14:32.700 ,2,0,7.,4.8,0.,4.8,0.,4.8,0.,4.8
1979-07-17 12:14:37.500 ,2,0,5.,4.8,0.,4.8,0.,4.8,1.,4.8
1979-07-17 12:14:42.300 ,2,0,9.,4.8,0.,4.8,0.,4.8,0.,4.8
1979-07-17 12:14:47.100 ,2,0,11.,4.8,0.,4.8,0.,4.8,0.,4.8
1979-07-17 12:14:51.900 ,2,0,11.,4.8,0.,4.8,0.,4.8,0.,4.8
1979-07-17 12:14:56.700 ,2,0,8.,4.8,0.,4.8,0.,4.8,0.,4.8
1979-07-17 12:15:01.500 ,2,0,7.,4.8,0.,4.8,0.,4.8,0.,4.8
1979-07-17 12:15:06.300 ,2,0,7.,4.8,0.,4.8,0.,4.8,0.,4.8
1979-07-17 12:15:11.100 ,3,0,8.,4.8,0.,4.8,0.,4.8,0.,4.8
1979-07-17 12:15:15.900 ,3,0,4.,4.8,0.,4.8,0.,4.8,0.,4.8
1979-07-17 12:15:20.700 ,3,0,4.,4.8,0.,4.8,0.,4.8,0.,4.8
1979-07-17 12:15:25.500 ,3,0,12.,4.8,0.,4.8,0.,4.8,1.,4.8
1979-07-17 12:15:30.300 ,3,0,7.,4.8,0.,4.8,0.,4.8,0.,4.8
1979-07-17 12:15:35.100 ,3,0,7.,4.8,0.,4.8,0.,4.8,0.,4.8
1979-07-17 12:15:39.900 ,3,0,7.,4.8,0.,4.8,0.,4.8,0.,4.8
1979-07-17 12:15:44.700 ,3,0,7.,4.8,0.,4.8,0.,4.8,1.,4.8
1979-07-17 12:15:49.500 ,3,0,6.,4.8,0.,4.8,0.,4.8,0.,4.8
1979-07-17 12:15:54.300 ,3,0,7.,4.8,0.,4.8,0.,4.8,0.,4.8
1979-07-17 12:15:59.100 ,4,0,9.,4.8,0.,4.8,0.,4.8,0.,4.8
1979-07-17 12:16:03.900 ,4,0,7.,4.8,0.,4.8,0.,4.8,0.,4.8
1979-07-17 12:16:08.700 ,4,0,6.,4.8,0.,4.8,0.,4.8,0.,4.8
1979-07-17 12:16:13.500 ,4,0,7.,4.8,0.,4.8,0.,4.8,0.,4.8
1979-07-17 12:16:18.300 ,4,0,5.,4.8,0.,4.8,0.,4.8,0.,4.8
1979-07-17 12:16:23.100 ,4,0,7.,4.8,0.,4.8,0.,4.8,1.,4.8
1979-07-17 12:16:27.900 ,4,0,9.,4.8,0.,4.8,0.,4.8,0.,4.8
1979-07-17 12:16:32.700 ,4,0,4.,4.8,0.,4.8,0.,4.8,0.,4.8
1979-07-17 12:16:37.500 ,4,0,6.,4.8,0.,4.8,0.,4.8,0.,4.8
1979-07-17 12:16:42.300 ,4,0,5.,4.8,0.,4.8,0.,4.8,0.,4.8
1979-07-17 12:16:47.100 ,5,0,7.,4.8,0.,4.8,0.,4.8,0.,4.8
1979-07-17 12:16:51.900 ,5,0,6.,4.8,0.,4.8,0.,4.8,0.,4.8
1979-07-17 12:16:56.700 ,5,0,6.,4.8,0.,4.8,0.,4.8,0.,4.8
1979-07-17 12:17:01.500 ,5,0,8.,4.8,0.,4.8,0.,4.8,0.,4.8
1979-07-17 12:17:06.300 ,5,0,6.,4.8,0.,4.8,0.,4.8,0.,4.8
1979-07-17 12:17:11.100 ,5,0,14.,4.8,0.,4.8,0.,4.8,0.,4.8
1979-07-17 12:17:15.900 ,5,0,7.,4.8,0.,4.8,0.,4.8,0.,4.8
1979-07-17 12:17:20.700 ,5,0,6.,4.8,0.,4.8,0.,4.8,0.,4.8
1979-07-17 12:17:25.500 ,5,0,6.,4.8,0.,4.8,0.,4.8,0.,4.8
1979-07-17 12:17:30.300 ,5,0,8.,4.8,0.,4.8,0.,4.8,0.,4.8
1979-07-17 12:17:35.100 ,6,0,7.,4.8,0.,4.8,0.,4.8,0.,4.8
1979-07-17 12:17:39.900 ,6,0,3.,4.8,0.,4.8,0.,4.8,0.,4.8
1979-07-17 12:17:44.700 ,6,0,3.,4.8,0.,4.8,0.,4.8,0.,4.8
1979-07-17 12:17:49.500 ,6,0,3.,4.8,0.,4.8,0.,4.8,0.,4.8
1979-07-17 12:17:54.300 ,6,0,4.,4.8,0.,4.8,0.,4.8,0.,4.8
1979-07-17 12:17:59.100 ,6,0,5.,4.8,0.,4.8,0.,4.8,0.,4.8
1979-07-17 12:18:03.900 ,6,0,4.,4.8,0.,4.8,0.,4.8,0.,4.8
1979-07-17 12:18:08.700 ,6,0,7.,4.8,0.,4.8,0.,4.8,0.,4.8
1979-07-17 12:18:13.500 ,6,0,2.,4.8,0.,4.8,0.,4.8,0.,4.8
1979-07-17 12:18:18.300 ,6,0,9.,4.8,0.,4.8,0.,4.8,0.,4.8
1979-07-17 12:18:23.100 ,7,0,10.,4.8,0.,4.8,0.,4.8,0.,4.8
1979-07-17 12:18:27.900 ,7,0,9.,4.8,0.,4.8,0.,4.8,0.,4.8
1979-07-17 12:18:32.700 ,7,0,7.,4.8,0.,4.8,0.,4.8,0.,4.8
1979-07-17 12:18:37.500 ,7,0,3.,4.8,0.,4.8,0.,4.8,0.,4.8
1979-07-17 12:18:42.300 ,7,0,3.,4.8,0.,4.8,0.,4.8,0.,4.8
1979-07-17 12:18:47.100 ,7,0,10.,4.8,0.,4.8,0.,4.8,0.,4.8
1979-07-17 12:18:51.900 ,7,0,2.,4.8,0.,4.8,0.,4.8,0.,4.8
1979-07-17 12:18:56.700 ,7,0,5.,4.8,0.,4.8,0.,4.8,0.,4.8
1979-07-17 12:19:01.500 ,7,0,2.,4.8,0.,4.8,0.,4.8,0.,4.8
1979-07-17 12:19:06.300 ,7,0,4.,4.8,0.,4.8,0.,4.8,0.,4.8
1979-07-17 12:19:11.100 ,3,1,5.,4.8,0.,4.8,0.,4.8,0.,4.8
1979-07-17 12:19:15.900 ,3,1,6.,4.8,0.,4.8,0.,4.8,0.,4.8
1979-07-17 12:19:20.700 ,3,1,6.,4.8,0.,4.8,0.,4.8,0.,4.8
1979-07-17 12:19:25.500 ,3,1,6.,4.8,0.,4.8,0.,4.8,0.,4.8
1979-07-17 12:19:30.300 ,3,1,7.,4.8,0.,4.8,0.,4.8,0.,4.8
1979-07-17 12:19:35.100 ,0,1,10.,4.8,0.,4.8,0.,4.8,0.,4.8
1979-07-17 12:19:39.900 ,0,1,4.,4.8,0.,4.8,0.,4.8,0.,4.8
1979-07-17 12:19:44.700 ,0,1,2.,4.8,0.,4.8,0.,4.8,0.,4.8
1979-07-17 12:19:49.500 ,0,1,8.,4.8,0.,4.8,0.,4.8,0.,4.8
1979-07-17 12:19:54.300 ,0,1,7.,4.8,0.,4.8,0.,4.8,0.,4.8
1979-07-17 12:19:59.100 ,4,1,9.,4.8,0.,4.8,0.,4.8,0.,4.8
1979-07-17 12:20:03.900 ,4,1,8.,4.8,0.,4.8,0.,4.8,0.,4.8
1979-07-17 12:20:08.700 ,4,1,12.,4.8,0.,4.8,0.,4.8,0.,4.8
1979-07-17 12:20:13.500 ,4,1,7.,4.8,0.,4.8,0.,4.8,0.,4.8
1979-07-17 12:20:18.300 ,4,1,6.,4.8,0.,4.8,0.,4.8,0.,4.8
1979-07-17 12:20:23.100 ,7,1,4.,4.8,0.,4.8,0.,4.8,0.,4.8
1979-07-17 12:20:27.900 ,7,1,8.,4.8,0.,4.8,0.,4.8,0.,4.8
1979-07-17 12:20:32.700 ,7,1,8.,4.8,0.,4.8,0.,4.8,0.,4.8
1979-07-17 12:20:37.500 ,7,1,7.,4.8,0.,4.8,0.,4.8,0.,4.8
1979-07-17 12:20:42.300 ,7,1,4.,4.8,0.,4.8,0.,4.8,0.,4.8
1979-07-17 12:20:47.100 ,3,1,6.,4.8,0.,4.8,0.,4.8,0.,4.8
1979-07-17 12:20:51.900 ,3,1,4.,4.8,0.,4.8,0.,4.8,0.,4.8
1979-07-17 12:20:56.700 ,3,1,5.,4.8,0.,4.8,0.,4.8,0.,4.8
1979-07-17 12:21:01.500 ,3,1,7.,4.8,0.,4.8,0.,4.8,0.,4.8
1979-07-17 12:21:06.300 ,3,1,6.,4.8,0.,4.8,0.,4.8,0.,4.8
1979-07-17 12:21:11.100 ,0,1,5.,4.8,0.,4.8,0.,4.8,0.,4.8
1979-07-17 12:21:15.900 ,0,1,5.,4.8,0.,4.8,0.,4.8,0.,4.8
1979-07-17 12:21:20.700 ,0,1,5.,4.8,0.,4.8,0.,4.8,0.,4.8
1979-07-17 12:21:25.500 ,0,1,5.,4.8,0.,4.8,0.,4.8,0.,4.8
1979-07-17 12:21:30.300 ,0,1,7.,4.8,0.,4.8,0.,4.8,0.,4.8
1979-07-17 12:21:35.100 ,0,0,7.,4.8,0.,4.8,0.,4.8,0.,4.8
1979-07-17 12:21:39.900 ,0,0,5.,4.8,0.,4.8,0.,4.8,0.,4.8
1979-07-17 12:21:44.700 ,0,0,9.,4.8,0.,4.8,0.,4.8,0.,4.8
1979-07-17 12:21:49.500 ,0,0,7.,4.8,0.,4.8,0.,4.8,0.,4.8
1979-07-17 12:21:54.300 ,0,0,9.,4.8,0.,4.8,0.,4.8,0.,4.8
1979-07-17 12:21:59.100 ,7,1,8.,4.8,0.,4.8,0.,4.8,0.,4.8
1979-07-17 12:22:03.900 ,7,1,2.,4.8,0.,4.8,0.,4.8,0.,4.8
1979-07-17 12:22:08.700 ,7,1,4.,4.8,0.,4.8,0.,4.8,0.,4.8
1979-07-17 12:22:13.500 ,7,1,2.,4.8,0.,4.8,0.,4.8,0.,4.8
1979-07-17 12:22:18.300 ,7,1,5.,4.8,0.,4.8,0.,4.8,0.,4.8
1979-07-17 12:22:23.100 ,3,1,1.,4.8,0.,4.8,0.,4.8,0.,4.8
1979-07-17 12:22:27.900 ,3,1,6.,4.8,0.,4.8,0.,4.8,0.,4.8
1979-07-17 12:22:32.700 ,3,1,7.,4.8,0.,4.8,0.,4.8,0.,4.8
1979-07-17 12:22:37.500 ,3,1,7.,4.8,0.,4.8,0.,4.8,0.,4.8
1979-07-17 12:22:42.300 ,3,1,4.,4.8,0.,4.8,0.,4.8,0.,4.8
1979-07-17 12:22:47.100 ,0,1,5.,4.8,0.,4.8,0.,4.8,0.,4.8
1979-07-17 12:22:51.900 ,0,1,7.,4.8,0.,4.8,0.,4.8,0.,4.8
1979-07-17 12:22:56.700 ,0,1,7.,4.8,0.,4.8,0.,4.8,0.,4.8
1979-07-17 12:23:01.500 ,0,1,6.,4.8,0.,4.8,0.,4.8,0.,4.8
1979-07-17 12:23:06.300 ,0,1,10.,4.8,0.,4.8,0.,4.8,0.,4.8
1979-07-17 12:23:11.100 ,4,1,8.,4.8,0.,4.8,0.,4.8,0.,4.8
1979-07-17 12:23:15.900 ,4,1,5.,4.8,0.,4.8,0.,4.8,0.,4.8
1979-07-17 12:23:20.700 ,4,1,6.,4.8,0.,4.8,0.,4.8,0.,4.8
1979-07-17 12:23:25.500 ,4,1,5.,4.8,0.,4.8,0.,4.8,0.,4.8
1979-07-17 12:23:30.300 ,4,1,6.,4.8,0.,4.8,0.,4.8,0.,4.8
1979-07-17 12:23:35.100 ,7,1,9.,4.8,0.,4.8,0.,4.8,0.,4.8
1979-07-17 12:23:39.900 ,7,1,4.,4.8,0.,4.8,0.,4.8,0.,4.8
1979-07-17 12:23:44.700 ,7,1,3.,4.8,0.,4.8,0.,4.8,0.,4.8
1979-07-17 12:23:49.500 ,7,1,2.,4.8,0.,4.8,0.,4.8,1.,4.8
1979-07-17 12:23:54.300 ,7,1,2.,4.8,0.,4.8,0.,4.8,0.,4.8
1979-07-17 12:23:59.100 ,3,1,3.,4.8,0.,4.8,0.,4.8,0.,4.8
1979-07-17 12:24:03.900 ,3,1,3.,4.8,0.,4.8,0.,4.8,0.,4.8
1979-07-17 12:24:08.700 ,3,1,11.,4.8,0.,4.8,0.,4.8,0.,4.8
1979-07-17 12:24:13.500 ,3,1,7.,4.8,0.,4.8,0.,4.8,0.,4.8
1979-07-17 12:24:18.300 ,3,1,6.,4.8,0.,4.8,0.,4.8,0.,4.8
1979-07-17 12:24:23.100 ,0,1,6.,4.8,0.,4.8,0.,4.8,0.,4.8
1979-07-17 12:24:27.900 ,0,1,10.,4.8,0.,4.8,0.,4.8,0.,4.8
1979-07-17 12:24:32.700 ,0,1,4.,4.8,0.,4.8,0.,4.8,0.,4.8
1979-07-17 12:24:37.500 ,0,1,6.,4.8,0.,4.8,0.,4.8,0.,4.8
1979-07-17 12:24:42.300 ,0,1,10.,4.8,0.,4.8,0.,4.8,0.,4.8
1979-07-17 12:24:47.100 ,4,1,2.,4.8,0.,4.8,0.,4.8,0.,4.8
1979-07-17 12:24:51.900 ,4,1,7.,4.8,0.,4.8,0.,4.8,0.,4.8
1979-07-17 12:24:56.700 ,4,1,2.,4.8,0.,4.8,0.,4.8,0.,4.8
1979-07-17 12:25:01.500 ,4,1,8.,4.8,0.,4.8,0.,4.8,0.,4.8
1979-07-17 12:25:06.300 ,4,1,10.,4.8,0.,4.8,0.,4.8,0.,4.8
1979-07-17 12:25:11.100 ,7,1,4.,4.8,0.,4.8,0.,4.8,0.,4.8
1979-07-17 12:25:15.900 ,7,1,8.,4.8,0.,4.8,0.,4.8,1.,4.8
1979-07-17 12:25:20.700 ,7,1,8.,4.8,0.,4.8,0.,4.8,1.,4.8
1979-07-17 12:25:25.500 ,7,1,5.,4.8,0.,4.8,0.,4.8,0.,4.8
1979-07-17 12:25:30.300 ,7,1,3.,4.8,0.,4.8,0.,4.8,0.,4.8
1979-07-17 12:25:35.100 ,3,1,3.,4.8,0.,4.8,0.,4.8,0.,4.8
1979-07-17 12:25:39.900 ,3,1,4.,4.8,0.,4.8,0.,4.8,0.,4.8
1979-07-17 12:25:44.700 ,3,1,10.,4.8,0.,4.8,0.,4.8,0.,4.8
1979-07-17 12:25:49.500 ,3,1,3.,4.8,0.,4.8,0.,4.8,0.,4.8
1979-07-17 12:25:54.300 ,3,1,7.,4.8,0.,4.8,0.,4.8,0.,4.8
1979-07-17 12:25:59.100 ,0,1,5.,4.8,0.,4.8,0.,4.8,0.,4.8
1979-07-17 12:26:03.900 ,0,1,7.,4.8,0.,4.8,0.,4.8,0.,4.8
1979-07-17 12:26:08.700 ,0,1,8.,4.8,0.,4.8,0.,4.8,0.,4.8
1979-07-17 12:26:13.500 ,0,1,4.,4.8,0.,4.8,0.,4.8,0.,4.8
1979-07-17 12:26:18.300 ,0,1,7.,4.8,0.,4.8,0.,4.8,1.,4.8
1979-07-17 12:26:23.100 ,4,1,6.,4.8,0.,4.8,0.,4.8,0.,4.8
1979-07-17 12:26:27.900 ,4,1,7.,4.8,0.,4.8,0.,4.8,0.,4.8
1979-07-17 12:26:32.700 ,4,1,3.,4.8,0.,4.8,0.,4.8,0.,4.8
1979-07-17 12:26:37.500 ,4,1,5.,4.8,0.,4.8,0.,4.8,0.,4.8
1979-07-17 12:26:42.300 ,4,1,5.,4.8,0.,4.8,0.,4.8,0.,4.8
1979-07-17 12:26:47.100 ,7,1,9.,4.8,0.,4.8,0.,4.8,0.,4.8
1979-07-17 12:26:51.900 ,7,1,7.,4.8,0.,4.8,0.,4.8,0.,4.8
1979-07-17 12:26:56.700 ,7,1,5.,4.8,0.,4.8,0.,4.8,0.,4.8
1979-07-17 12:27:01.500 ,7,1,11.,4.8,0.,4.8,0.,4.8,0.,4.8
1979-07-17 12:27:06.300 ,7,1,6.,4.8,0.,4.8,0.,4.8,0.,4.8
1979-07-17 12:27:11.100 ,3,1,7.,4.8,0.,4.8,0.,4.8,0.,4.8
1979-07-17 12:27:15.900 ,3,1,7.,4.8,0.,4.8,0.,4.8,0.,4.8
1979-07-17 12:27:20.700 ,3,1,6.,4.8,0.,4.8,0.,4.8,0.,4.8
1979-07-17 12:27:25.500 ,3,1,5.,4.8,0.,4.8,0.,4.8,0.,4.8
1979-07-17 12:27:30.300 ,3,1,7.,4.8,0.,4.8,0.,4.8,0.,4.8
1979-07-17 12:27:35.100 ,0,1,11.,4.8,0.,4.8,0.,4.8,0.,4.8
1979-07-17 12:27:39.900 ,0,1,3.,4.8,0.,4.8,0.,4.8,1.,4.8
1979-07-17 12:27:44.700 ,0,1,7.,4.8,0.,4.8,0.,4.8,0.,4.8
1979-07-17 12:27:49.500 ,0,1,5.,4.8,0.,4.8,0.,4.8,0.,4.8
1979-07-17 12:27:54.300 ,0,1,10.,4.8,0.,4.8,0.,4.8,0.,4.8
1979-07-17 12:27:59.100 ,4,1,8.,4.8,0.,4.8,0.,4.8,0.,4.8
1979-07-17 12:28:03.900 ,4,1,6.,4.8,0.,4.8,0.,4.8,0.,4.8
1979-07-17 12:28:08.700 ,4,1,4.,4.8,0.,4.8,0.,4.8,0.,4.8
1979-07-17 12:28:13.500 ,4,1,7.,4.8,0.,4.8,0.,4.8,1.,4.8
1979-07-17 12:28:18.300 ,4,1,7.,4.8,0.,4.8,0.,4.8,0.,4.8
1979-07-17 12:28:23.100 ,7,1,4.,4.8,0.,4.8,0.,4.8,0.,4.8
1979-07-17 12:28:27.900 ,7,1,6.,4.8,0.,4.8,0.,4.8,0.,4.8
1979-07-17 12:28:32.700 ,7,1,5.,4.8,0.,4.8,0.,4.8,0.,4.8
1979-07-17 12:28:37.500 ,7,1,5.,4.8,0.,4.8,0.,4.8,0.,4.8
1979-07-17 12:28:42.300 ,7,1,4.,4.8,0.,4.8,0.,4.8,0.,4.8
1979-07-17 12:28:47.090 ,3,1,6.,4.8,0.,4.8,0.,4.8,0.,4.8
1979-07-17 12:28:51.900 ,3,1,10.,4.8,0.,4.8,0.,4.8,0.,4.8
1979-07-17 12:28:56.690 ,3,1,6.,4.8,0.,4.8,0.,4.8,0.,4.8
1979-07-17 12:29:01.490 ,3,1,4.,4.8,0.,4.8,0.,4.8,1.,4.8
1979-07-17 12:29:06.300 ,3,1,2.,4.8,0.,4.8,0.,4.8,0.,4.8
1979-07-17 12:29:11.090 ,0,1,8.,4.8,0.,4.8,0.,4.8,0.,4.8
1979-07-17 12:29:15.900 ,0,1,10.,4.8,0.,4.8,0.,4.8,0.,4.8
1979-07-17 12:29:20.690 ,0,1,8.,4.8,0.,4.8,0.,4.8,0.,4.8
1979-07-17 12:29:25.490 ,0,1,12.,4.8,0.,4.8,0.,4.8,0.,4.8
1979-07-17 12:29:30.300 ,0,1,4.,4.8,0.,4.8,0.,4.8,0.,4.8
1979-07-17 12:29:35.090 ,0,0,7.,4.8,0.,4.8,0.,4.8,0.,4.8
1979-07-17 12:29:39.900 ,0,0,2.,4.8,0.,4.8,0.,4.8,0.,4.8
1979-07-17 12:29:44.690 ,0,0,4.,4.8,0.,4.8,0.,4.8,2.,4.8
1979-07-17 12:29:49.490 ,0,0,5.,4.8,0.,4.8,0.,4.8,0.,4.8
1979-07-17 12:29:54.300 ,0,0,8.,4.8,0.,4.8,0.,4.8,0.,4.8
1979-07-17 12:29:59.090 ,0,0,6.,4.8,0.,4.8,0.,4.8,0.,4.8
1979-07-17 12:30:03.900 ,0,0,4.,4.8,0.,4.8,0.,4.8,0.,4.8
1979-07-17 12:30:08.690 ,0,0,2.,4.8,0.,4.8,0.,4.8,0.,4.8
1979-07-17 12:30:13.490 ,0,0,5.,4.8,0.,4.8,0.,4.8,0.,4.8
1979-07-17 12:30:18.300 ,0,0,6.,4.8,0.,4.8,0.,4.8,0.,4.8
1979-07-17 12:30:23.090 ,5,0,2.,4.8,0.,4.8,0.,4.8,0.,4.8
1979-07-17 12:30:27.900 ,5,0,7.,4.8,0.,4.8,0.,4.8,0.,4.8
1979-07-17 12:30:32.690 ,5,0,4.,4.8,0.,4.8,0.,4.8,0.,4.8
1979-07-17 12:30:37.490 ,5,0,11.,4.8,0.,4.8,0.,4.8,0.,4.8
1979-07-17 12:30:42.300 ,5,0,6.,4.8,0.,4.8,0.,4.8,0.,4.8
1979-07-17 12:30:47.090 ,5,0,9.,4.8,0.,4.8,0.,4.8,1.,4.8
1979-07-17 12:30:51.900 ,5,0,9.,4.8,0.,4.8,0.,4.8,0.,4.8
1979-07-17 12:30:56.690 ,5,0,6.,4.8,0.,4.8,0.,4.8,0.,4.8
1979-07-17 12:31:01.490 ,5,0,2.,4.8,0.,4.8,0.,4.8,0.,4.8
1979-07-17 12:31:06.300 ,5,0,5.,4.8,0.,4.8,0.,4.8,0.,4.8
1979-07-17 12:31:11.090 ,4,0,5.,4.8,0.,4.8,0.,4.8,0.,4.8
1979-07-17 12:31:15.900 ,4,0,8.,4.8,0.,4.8,0.,4.8,0.,4.8
1979-07-17 12:31:20.690 ,4,0,9.,4.8,0.,4.8,0.,4.8,0.,4.8
1979-07-17 12:31:25.490 ,4,0,7.,4.8,0.,4.8,0.,4.8,0.,4.8
1979-07-17 12:31:30.300 ,4,0,6.,4.8,0.,4.8,0.,4.8,0.,4.8
1979-07-17 12:31:35.090 ,4,0,9.,4.8,0.,4.8,0.,4.8,0.,4.8
1979-07-17 12:31:39.900 ,4,0,7.,4.8,0.,4.8,0.,4.8,0.,4.8
1979-07-17 12:31:44.690 ,4,0,4.,4.8,0.,4.8,0.,4.8,0.,4.8
1979-07-17 12:31:49.490 ,4,0,7.,4.8,0.,4.8,0.,4.8,0.,4.8
1979-07-17 12:31:54.300 ,4,0,4.,4.8,0.,4.8,0.,4.8,0.,4.8
1979-07-17 12:31:59.090 ,3,0,7.,4.8,0.,4.8,0.,4.8,0.,4.8
1979-07-17 12:32:03.900 ,3,0,7.,4.8,0.,4.8,0.,4.8,0.,4.8
1979-07-17 12:32:08.690 ,3,0,7.,4.8,0.,4.8,0.,4.8,0.,4.8
1979-07-17 12:32:13.490 ,3,0,6.,4.8,0.,4.8,0.,4.8,0.,4.8
1979-07-17 12:32:18.300 ,3,0,9.,4.8,0.,4.8,0.,4.8,0.,4.8
1979-07-17 12:32:23.090 ,3,0,7.,4.8,0.,4.8,0.,4.8,0.,4.8
1979-07-17 12:32:27.900 ,3,0,5.,4.8,0.,4.8,0.,4.8,0.,4.8
1979-07-17 12:32:32.690 ,3,0,6.,4.8,0.,4.8,0.,4.8,0.,4.8
1979-07-17 12:32:37.490 ,3,0,7.,4.8,0.,4.8,0.,4.8,0.,4.8
1979-07-17 12:32:42.300 ,3,0,5.,4.8,0.,4.8,0.,4.8,0.,4.8
1979-07-17 12:32:47.090 ,2,0,6.,4.8,0.,4.8,0.,4.8,0.,4.8